Location: Piilijoki
(61.4000°N, 22.5167°E)
Time: 23:31:09
(UTC+00:00)

Daily predictions for brighter satellites

Satellite Brightness Start Highest point End
(mag) Time Altitude Azimuth Time Altitude Azimuth Time Altitude Azimuth
Cosmos 2366 rocket 4.2 21:34:56 10° S 21:41:13 67° E 21:47:30 10° NNE
Cosmos 2218 Rocket 4.2 21:36:22 10° S 21:42:39 70° E 21:48:52 10° NNE
Cosmos 1933 4.0 21:40:43 10° NNW 21:44:36 47° W 21:48:29 10° S
Cosmos 2058 4.3 21:41:29 10° SW 21:45:21 37° WNW 21:49:12 10° N
Cosmos 1818 4.3 21:41:07 10° W 21:46:33 62° N 21:52:00 10° ENE
Cosmos 1408 Rocket 3.8 21:43:15 10° S 21:47:37 62° E 21:52:02 10° NNE
Cosmos 1331 Rocket 4.1 21:42:20 10° NW 21:47:40 75° WSW 21:52:57 10° SSE
Cosmos 1782 2.8 21:44:52 10° NNW 21:48:51 81° WSW 21:52:48 10° S
Cosmos 1697 Rocket 4.5 21:44:46 10° NW 21:49:58 36° NNE 21:55:10 10° E
NOSS 0 Rocket 4.2 21:46:29 10° SW 21:52:40 75° NW 21:58:55 10° NE
Cosmos 44 3.3 21:48:32 10° SSW 21:52:46 50° SE 21:57:12 10° ENE
Cosmos 1346 Rocket 3.2 21:50:20 10° S 21:54:07 49° E 21:57:57 10° NNE
SL-16 R/B 2.3 21:51:38 10° SSW 21:57:16 66° SE 22:02:56 10° NE
Cosmos 1500 Rocket 4.2 21:54:24 10° SSE 21:58:34 45° E 22:02:45 10° NNE
YAOGAN 11 4.3 21:55:06 10° SSE 21:59:31 77° ENE 22:04:02 10° NNW
Cosmos 1340 2.7 22:00:45 10° SSW 22:04:31 85° ESE 22:08:20 10° NNE
Cosmos 1680 Rocket 4.3 22:00:16 10° SW 22:05:32 58° NW 22:10:50 10° NNE
COSMOS 2455 4.1 22:02:03 10° WNW 22:07:04 28° WSW 22:12:04 10° S
Cosmos 1825 3.4 22:03:56 10° SW 22:07:31 39° WNW 22:11:09 10° N
Cosmos 1110 Rocket 4.4 22:04:29 10° NW 22:09:38 53° WSW 22:14:46 10° S
ALOS 2 3.2 22:05:40 10° S 22:09:55 48° W 22:14:12 10° NNW
EP 3 3.7 22:09:19 10° SW 22:11:15 49° SSE 22:13:22 10° ENE
Cosmos 2341 Rocket 4.4 22:05:45 10° SSW 22:11:55 64° WNW 22:18:07 10° NNE
SL-8 Rocket 4.2 22:06:24 10° SSW 22:12:34 76° WNW 22:18:46 10° NNE
Cosmos 1656 Rocket 3.9 22:07:44 10° NW 22:13:03 57° WSW 22:18:21 10° SSE
NOSS 2-1 (E) 3.9 22:09:17 10° WNW 22:13:35 85° SSW 22:19:31 10° ESE
Cosmos 405 3.9 22:11:15 10° NNW 22:14:36 40° W 22:17:55 10° SSW
GEOS 3 Rocket 3.7 22:10:55 10° ENE 22:16:21 83° SSE 22:21:47 10° WSW
GP-B 3.7 22:12:52 10° N 22:17:12 52° W 22:21:31 10° SSW
Cosmos 1633 2.6 22:14:09 10° S 22:17:46 74° ESE 22:21:23 10° NNE
Cosmos 2322 Rocket 4.4 22:15:47 10° WNW 22:20:49 32° N 22:25:51 10° ENE
Cosmos 1727 Rocket 4.5 22:16:29 10° NNW 22:22:32 55° W 22:28:38 10° SSW
CZ-2D R/B 4.4 22:21:48 10° NE 22:24:09 13° ENE 22:26:29 10° ESE
Cosmos 389 Rocket 2.7 22:20:54 10° NNW 22:24:25 65° ENE 22:27:52 10° SSE
SL-4 R/B 1.5 22:24:18 10° SSW 22:26:08 30° WSW 22:28:00 10° NW
Cosmos 2369 Rocket 3.2 22:21:23 10° NW 22:26:17 32° WSW 22:31:11 10° S
NOSS 3-3 (A) 4.4 22:20:24 10° W 22:26:52 80° NNW 22:34:20 10° ENE
NOSS 3-3 (C) 4.4 22:20:30 10° W 22:26:57 80° NNW 22:34:27 10° ENE
Gbstr 26 Del rocket 4.2 22:24:49 10° SSW 22:27:31 18° SSE 22:30:25 10° ESE
RESURS DK-1 3.8 22:25:22 10° WNW 22:28:45 25° WSW 22:32:09 10° S
Cosmos 1302 Rocket 4.1 22:25:04 10° NW 22:30:16 65° WSW 22:35:24 10° SSE
Meteor 1-4 Rocket 3.9 22:26:50 10° N 22:30:22 36° ENE 22:33:50 10° SE
Lacrosse 5 rocket 3.4 22:30:44 10° WSW 22:31:35 11° SW 22:32:24 10° SW
Cosmos 1603 4.2 22:27:35 10° S 22:33:00 46° ESE 22:38:28 10° NE
Genesis I 3.4 22:31:33 10° WSW 22:35:28 76° NNW 22:39:22 10° ENE
Cosmos 1707 Rocket 3.7 22:32:10 10° NNW 22:36:40 86° ENE 22:41:07 10° SSE
Cosmos 1862 3.8 22:33:24 10° S 22:37:17 52° E 22:41:12 10° NNE
Helios 1B rocket 3.7 22:34:34 10° NNE 22:38:17 31° E 22:41:57 10° SSE
USA 215 3.5 22:32:05 10° E 22:38:26 48° SSE 22:44:46 10° SW
Helios 1A 3.5 22:34:49 10° S 22:38:51 47° W 22:42:55 10° NNW
CZ-4C R/B 3.7 22:37:00 10° WNW 22:43:02 33° SW 22:49:54 10° S
Meteor 2-3 Rocket 4.1 22:41:33 10° SSW 22:47:14 66° WNW 22:52:59 10° NNE
SL-16 R/B 3.3 22:41:37 10° SE 22:47:41 55° ENE 22:53:47 10° NNW
NOSS 7 (D) 4.1 22:45:37 10° WNW 22:48:16 70° NNE 22:51:02 10° E
Cosmos 2219 Rocket 4.0 22:43:42 10° W 22:48:53 36° NNW 22:54:06 10° NE
Cosmos 1812 3.0 22:47:38 10° NNW 22:51:27 56° W 22:55:14 10° S
Cosmos 2237 Rocket 3.3 22:48:06 10° WSW 22:53:37 48° NNW 22:59:10 10° NE
COSMOS 2428 4.5 22:49:21 10° W 22:54:38 37° NNW 22:59:55 10° NE
Sich 1 3.4 22:50:53 10° S 22:55:08 57° E 22:59:27 10° NNE
Cosmos 2360 Rocket 4.4 22:50:08 10° WNW 22:55:12 32° N 23:00:17 10° ENE
Cosmos 1862 Rocket 3.8 22:53:36 10° NNW 22:58:04 76° ENE 23:02:32 10° SSE
Okean 1-7 4.5 22:54:22 10° N 22:58:28 36° ENE 23:02:34 10° SE
Okean 1 4.5 22:55:11 10° N 22:58:58 41° ENE 23:02:45 10° SE
Cosmos 2242 Rocket 4.5 22:54:37 10° N 22:59:07 50° ENE 23:03:34 10° SE
Cosmos 1633 Rocket 3.9 22:55:53 10° SSE 23:00:01 42° E 23:04:12 10° NNE
Cosmos 44 Rocket 3.9 22:56:29 10° SSW 23:00:53 40° SE 23:05:23 10° ENE
IRAS Rocket 4.5 22:57:06 10° SSE 23:02:34 75° ENE 23:08:06 10° NNW
Cosmos 1980 Rocket 3.6 22:59:13 10° NW 23:04:42 44° NNE 23:10:10 10° E
Cosmos 1943 Rocket 4.1 23:02:20 10° WNW 23:05:32 16° W 23:08:44 10° SW
Cosmos 1743 Rocket 4.0 23:01:27 10° SSW 23:05:45 57° WNW 23:10:06 10° N
Cosmos 494 Rocket 4.1 23:01:22 10° SSW 23:06:31 72° ESE 23:11:40 10° NE
ISS -1.7 23:06:11 10° S 23:07:42 13° SSE 23:09:12 10° SE
Cosmos 2228 Rocket 4.5 23:03:47 10° NNW 23:07:44 29° W 23:11:40 10° SSW
NOSS 2-1 (C) 4.1 23:04:23 10° WNW 23:08:43 55° SW 23:14:36 10° SE
ATLAS 5 CENTAUR R/B 2.3 23:04:23 10° WNW 23:09:18 77° NNE 23:15:09 10° E
NOSS 2-1 (D) 4.2 23:09:05 10° WNW 23:13:26 53° SW 23:19:24 10° SE
Landsat 4 3.8 23:13:51 10° NNE 23:17:40 87° WNW 23:21:29 10° SSW
Resurs 1-4 Rocket 3.7 23:13:50 10° NNE 23:18:22 27° E 23:22:51 10° SSE
ADEOS II 4.4 23:16:22 10° NE 23:19:17 15° E 23:22:11 10° ESE
CZ-4 R/B 3.9 23:15:19 10° NNE 23:20:01 73° ESE 23:24:47 10° SSW
Cosmos 2333 Rocket 4.2 23:14:55 10° WNW 23:20:07 34° N 23:25:22 10° NE
Iridium 4 Rocket 4.0 23:14:37 10° SSE 23:20:14 63° E 23:25:28 10° N
Cosmos 1441 Rocket 3.6 23:18:15 10° S 23:22:10 59° ESE 23:26:04 10° NNE
SL-16 R/B 4.2 23:17:03 10° NW 23:22:17 35° NNE 23:27:30 10° E
Cosmos 1437 Rocket 4.3 23:20:16 10° N 23:24:07 38° ENE 23:27:55 10° SE
USA 32 4.2 23:21:57 10° SSW 23:27:14 79° W 23:32:34 10° N
